Regional Weather Roundup
Issued by NWS

Home | Current Version | Previous Version | Graphics & Text | Print | Product List | Glossary On
Versions: 1 2 3 4 5 6 7 8 9 10 11 12 13 14 15 16 17 18 19 20 21 22 23 24 25 26 27 28 29 30 31 32 33 34 35 36 37 38 39 40 41 42 43 44 45 46 47 48 49 50
000
ASUS43 KLOT 142008
RWRIL

ILLINOIS REGIONAL WEATHER ROUNDUP
NATIONAL WEATHER SERVICE CHICAGO/ROMEOVILLE IL
200 PM CST THU DEC 14 2017

NOTE: "FAIR" INDICATES FEW OR NO CLOUDS BELOW 12,000 FEET WITH NO
SIGNIFICANT WEATHER AND/OR OBSTRUCTIONS TO VISIBILITY.

* THESE STATIONS ARE NOT UNDER NWS QUALITY CONTROL. THEY ALSO MAY NOT
  REPORT WEATHER SUCH AS PRECIPITATION OR FOG.

ILZ001-002-007-009-015-016-024-142100-
NORTHWEST ILLINOIS

CITY           SKY/WX    TMP DP  RH WIND       PRES   REMARKS
MOLINE         CLOUDY    29  16  58 VRB3      30.07S
STERLING*      SUNNY     25  11  55 CALM      30.08S
SAVANNA*       SUNNY     26  10  50 SW3       30.07F
$$

ILZ003-004-008-010-011-017-018-142100-
NORTH CENTRAL ILLINOIS

CITY           SKY/WX    TMP DP  RH WIND       PRES   REMARKS
ROCKFORD       MOSUNNY   27  10  49 W7        30.06F WCI  19
FREEPORT*      SUNNY     25  12  58 CALM      30.06F
ROCHELLE*      SUNNY     25  11  55 W3        30.06S
DE KALB*       MOSUNNY   24  11  59 NW3       30.05R
PERU*          PTSUNNY   25  10  51 CALM      30.07S
$$

ILZ005-006-012>014-019>023-142100-
NORTHEAST ILLINOIS

CITY           SKY/WX    TMP DP  RH WIND       PRES   REMARKS
CHICAGO-OHARE  PTSUNNY   26   9  48 NW6       30.04S WCI  19
CHICAGO-MIDWAY CLOUDY    28   9  44 W9        30.04S WCI  19
AURORA         MOSUNNY   26  10  50 NW7       30.05S WCI  18
LANSING*       MOSUNNY   28  16  59 W6        30.04S WCI  22
JOLIET*        SUNNY     29  10  45 W3        30.06R
WAUKEGAN       SUNNY     25  10  53 NW8       30.03F WCI  16
DUPAGE AIRPORT MOSUNNY   26  11  52 NW7       30.04S WCI  18
KANKAKEE*      CLOUDY    29  13  52 NW3       30.06S
WHEELING       SUNNY     27  10  49 NW7       30.05F WCI  19
MORRIS*        SUNNY     28  11  48 N3        30.05R
ROMEOVILLE*    SUNNY     28  10  46 N5        30.04S WCI  23
NORTHERLY ISL    N/A     26  14  60 MISG        N/A
$$

LMZ740>746-142100-
SOUTHERN LAKE MICHIGAN

STATION/POSITION SKY/WX   TEMP    WIND        PRES    VSBY  WAVE
                          AIR SEA DIR/SP/G                  HT/PER
                          (F)     (DEG/KT/KT) (MB)    (MI)  (FT/S)
HARRISON CRIB              25     330/  9/ 11   N/A
BURNHAM HARBOR             26      30/  7/ 11   N/A
CALUMET HARBOR             27     350/  7/ 10 1016.5F
BURNS HARBOR               28     290/ 10/ 12 1017.3F
MICHIGAN CITY              22     140/  9/ 10   N/A
$$

ILZ025>027-034>036-040-047-049-050-058-095>099-142100-
WEST-CENTRAL ILLINOIS

CITY           SKY/WX    TMP DP  RH WIND       PRES   REMARKS
QUINCY         CLOUDY    29  16  58 VRB5      30.07S WCI  24
GALESBURG*     CLOUDY    29  18  64 CALM      30.07S
MACOMB*        CLOUDY    31  17  56 CALM      30.09R
JACKSONVILLE*  CLOUDY    29  17  59 W5        30.08S WCI  24
PITTSFIELD*    CLOUDY    30  18  60 NW5       30.08S WCI  25
$$

ILZ028>032-037-038-041>044-048-051>054-059>061-142100-
CENTRAL ILLINOIS

CITY           SKY/WX    TMP DP  RH WIND       PRES   REMARKS
PONTIAC        CLOUDY    28  13  52 CALM      30.06F
BLOOMINGTON    CLOUDY    30  15  53 CALM      30.05S
DECATUR        CLOUDY    31  17  56 W3        30.05F
PEORIA         CLOUDY    30  13  49 VRB6      30.07S WCI  24
LACON*         CLOUDY    26  11  53 CALM      30.07F
LINCOLN*       PTSUNNY   31  16  53 CALM      30.07S
SPRINGFIELD    CLOUDY    32  18  56 W6        30.07F WCI  26
TAYLORVILLE    PTSUNNY   32  17  54 CALM      30.06F
$$

ILZ033-039-045-046-055>057-062-063-142100-
EAST-CENTRAL ILLINOIS

CITY           SKY/WX    TMP DP  RH WIND       PRES   REMARKS
CHAMPAIGN      MOSUNNY   32  18  56 CALM      30.05S
DANVILLE*      CLOUDY    30  17  59 CALM      30.02S
RANTOUL*       CLOUDY    32  19  59 CALM      30.05R
MATTOON        CLOUDY    31  19  61 NW5       30.04S WCI  26
PARIS*         CLOUDY    31  18  58 CALM      30.05F
$$

ILZ079-100>102-142100-
SOUTHWEST ILLINOIS

CITY           SKY/WX    TMP DP  RH WIND       PRES   REMARKS
ALTON          CLOUDY    30  19  64 CALM      30.08F
BELLEVILLE     CLOUDY    32  17  54 N5        30.07S WCI  28
CAHOKIA*       CLOUDY    32  17  54 N3        30.08F
SPARTA*        CLOUDY    32  21  64 NW5       30.08S WCI  27
$$

ILZ064>066-069>071-074>076-080>082-084>086-088>090-092>094-142100-
SOUTH-CENTRAL ILLINOIS

CITY           SKY/WX    TMP DP  RH WIND       PRES   REMARKS
CARBONDALE     CLOUDY    34  21  59 NW9       30.07F WCI  27
CAIRO*         CLOUDY    35  23  62 N5        30.07S WCI  31
EFFINGHAM*     PTSUNNY   32  20  60 CALM      30.07F
MARION         CLOUDY    34  19  55 N9        30.07F WCI  26
MT. VERNON     CLOUDY    34  19  54 CALM      30.06F
CENTRALIA*     CLOUDY    33  22  61 NW6       30.05F WCI  28
SALEM*         CLOUDY    34  19  53 N3        30.06F
METROPOLIS*    CLOUDY    35  22  60 N6        30.07S WCI  30
$$

ILZ067-068-072-073-078-083-087-091-142100-
SOUTHEAST ILLINOIS

CITY           SKY/WX    TMP DP  RH WIND       PRES   REMARKS
LAWRENCEVILLE  CLOUDY    34  21  59 N7        30.06S WCI  28
FLORA*         CLOUDY    33  21  61 CALM      30.08S
FAIRFIELD*     CLOUDY    33  20  58 CALM      30.06S
HARRISBURG*    CLOUDY    34  21  58 NE3       30.07F
ROBINSON*      CLOUDY    32  20  63 E6        30.07S WCI  26
CARMI*         CLOUDY    33  20  59 NW5       30.07S WCI  29
$$

ABBREVIATIONS USED IN REMARKS
   TC - TEMPERATURE IN CELSIUS
  WCI - WIND CHILL INDEX
   HX - HEAT INDEX
  VSB - VISIBILITY
$$





USA.gov is the U.S. government's official web portal to all federal, state and local government web resources and services.